Regional Weather Roundup
Issued by NWS Portland, ME

Home | Current Version | Previous Version | Text Only | Print | Product List | Glossary On
Versions: 1 2 3 4 5 6 7 8 9 10 11 12 13 14 15 16 17 18 19 20 21 22 23 24 25 26 27 28 29 30 31 32 33 34 35 36 37 38 39 40 41 42 43 44 45 46 47 48 49 50
000
ASUS41 KGYX 201410
RWRGYX
WEATHER ROUNDUP FOR MAINE AND NEW HAMPSHIRE
NATIONAL WEATHER SERVICE GRAY ME
1000 AM EDT SAT SEP 20 2014

MEZ002-005-006-010-012-015-018-020-021-024-026-027-029-201500-
MAINE

CITY           SKY/WX    TMP DP  RH WIND       PRES   REMARKS
PORTLAND       CLOUDY    54  46  74 SW5       30.31F
SANFORD        CLOUDY    50  39  66 W6        30.32S
BAR HARBOR     PTSUNNY   57  48  72 S17G25    30.29F
WISCASSET      MOSUNNY   58  47  66 SW9G20    30.31F
ROCKLAND       MOSUNNY   57  43  58 SW17G25   30.30F
FRYEBURG       CLOUDY    49  40  71 SW6       30.29F
LEWISTONAUBURN CLOUDY    52  39  62 S14G22    30.29F
AUGUSTA        PTSUNNY   53  42  66 S13G25    30.28F
WATERVILLE     PTSUNNY   54  39  58 S10G17    30.22F
BANGOR         PTSUNNY   53  42  66 SW10      30.27F
GREENVILLE       N/A     47  38  71 S10       30.16F
MILLINOCKET    PTSUNNY   49  38  65 S10G17    30.21F
HOULTON        CLOUDY    47  36  65 SW15G24   30.18F
PRESQUE ISLE   CLOUDY    48  34  57 S14       30.10F
FRENCHVILLE    CLOUDY    43  33  68 S8        30.07F
CARIBOU        CLOUDY    49  34  56 S14       30.10F
$$

NHZ002-005-008-009-011-012-014-201500-
NEW HAMPSHIRE

CITY           SKY/WX    TMP DP  RH WIND       PRES   REMARKS
PORTSMOUTH     CLOUDY    57  47  68 W5        30.30S
ROCHESTER      CLOUDY    47  40  76 CALM      30.31F
NASHUA         CLOUDY    52  43  71 CALM      30.32F
MANCHESTER     CLOUDY    47  39  74 SW5       30.30F
CONCORD        CLOUDY    46  40  79 SE3       30.31F
LACONIA        CLOUDY    48  41  76 SW8       30.27F
PLYMOUTH       CLOUDY    41  41 100 CALM      30.30F
BERLIN         CLOUDY    38  35  89 SE3       30.22F
WHITEFIELD     CLOUDY    45  40  82 VRB3      30.22F
JAFFREY        CLOUDY    53  46  77 SW5       30.30F
LEBANON        CLOUDY    52  43  71 S9        30.25F
MT WASHINGTON  FOG       37  37 100 W46G55      N/A  VSB 0
$$

VTZ005-007-008-201500-
VERMONT

CITY           SKY/WX    TMP DP  RH WIND       PRES   REMARKS
ST JOHNSBURY     N/A     50  43  77 MISG      30.20F
MONTPELIER     CLOUDY    48  43  82 SW8       30.24S
BURLINGTON     CLOUDY    58  47  66 S23G35    30.15F
$$

MAZ007-012-024-CTZ003-RIZ002-NYZ038-NYZ072-201500-
SOUTHERN NEW ENGLAND AND NY

CITY           SKY/WX    TMP DP  RH WIND       PRES   REMARKS
BOSTON         SUNNY     61  47  59 S13       30.32F
WORCESTER      SUNNY     56  47  71 S13       30.31F
NANTUCKET      SUNNY     61  49  64 SE10      30.36S
PROVIDENCE     MOSUNNY   63  49  60 S9        30.33F
HARTFORD       PTSUNNY   60  48  64 SW6       30.30F
ALBANY         PTSUNNY   62  51  67 S16G22    30.23F
NEW YORK CITY  PTSUNNY   69  55  60 S14       30.28F
$$

ANZ081-ANZ082-ANZ150-NHZ014-MEZ023>029-201500-
COASTAL MARINE OBSERVATIONS

STATION/POSITION TIME  TEMP    WIND        PRES    WAVE
                       AIR SEA DIR/SP/G            HT/PER
                 (UTC) (F)     (DEG/KT/KT) (MB)    (FT/S)
MATINICUS ROCK   1400          210/ 19/ 21 1026.3F
PORTLAND WX BUOY 1350   56 57  190/ 17/ 21 1025.6F   3/ 5
WELLS            1300   56 57  200/ 15/ 18 1025.7F
ISLE OF SHOALS   1400   57     170/ 22/ 24 1025.4F
JEFFREYS LEDGE   1321      59                N/A     3/ 4
CASHES LEDGE BUO 1350   57 61              1026.9F   3/ 4
$$

.............KEY..............
   WCI - WIND CHILL
   TC  - TEMPERATURE IN CELSIUS
   VSB - VISIBILITY IN MILES
   HX  - HEAT INDEX
   FAIR- INDICATES FEW OR NO CLOUDS BELOW 12,000 FT, WITH NO
         SIGNIFICANT WEATHER AND/OR OBSTRUCTIONS TO VISIBILITY.





USA.gov is the U.S. government's official web portal to all federal, state and local government web resources and services.